Regional Weather Roundup
Issued by NWS

Home | Current Version | Previous Version | Text Only | Print | Product List | Glossary Off
Versions: 1 2 3 4 5 6 7 8 9 10 11 12 13 14 15 16 17 18 19 20 21 22 23 24 25 26 27 28 29 30 31 32 33 34 35 36 37 38 39 40 41 42 43 44 45 46 47 48 49 50

000
ASUS43 KOAX 181102
RWRNE

WEATHER ROUNDUP FOR NEBRASKA
NATIONAL WEATHER SERVICE OMAHA NE
600 AM CDT THU SEP 18 2014

NOTES: SATELLITE DATA IS BEING USED TO AUGMENT CLOUD COVER ABOVE
       12000 FEET.
       "FAIR" INDICATES FEW OR NO CLOUDS BELOW 12,000 FEET WITH NO
       SIGNIFICANT WEATHER AND/OR OBSTRUCTIONS TO VISIBILITY.

  * THESE STATIONS DO NOT REPORT WEATHER SUCH AS RAIN...SNOW OR FOG.

NEZ001>004-019>022-054>056-181200-
NEBRASKA PANHANDLE

CITY           SKY/WX    TMP DP  RH WIND       PRES   REMARKS
SCOTTSBLUFF    PTCLDY    53  52  96 CALM      29.95S FOG
ALLIANCE       CLOUDY    62  61  96 S17       29.94F FOG
CHADRON        CLEAR     49  47  93 W5        29.91S
KIMBALL        CLEAR     48  42  79 W7        29.99F
SIDNEY         FOG       56  55  97 CALM      29.98F VSB 1/4
$$

NEZ057>060-069>072-079>082-181200-
SOUTHWEST NEBRASKA

CITY           SKY/WX    TMP DP  RH WIND       PRES   REMARKS
NORTH PLATTE   FOG       59  58  96 E6        29.96S VSB 1/4
IMPERIAL       FOG       65  63  93 E6        29.95F VSB 1/4
LEXINGTON      FOG       62  61  97 SE7       29.97S VSB 1/4
MCCOOK         CLOUDY    62  62 100 E7        29.95S FOG
OGALLALA       FOG       64  64  97 SE3       29.96S VSB 3/4
$$

NEZ005>010-023>029-035>040-094-181200-
NORTH CENTRAL NEBRASKA

CITY           SKY/WX    TMP DP  RH WIND       PRES   REMARKS
VALENTINE      CLEAR     60  59  96 S6        29.94S
AINSWORTH      CLEAR     59  59  98 S10       29.95S
BROKEN BOW     FOG       60  59  96 SE7       29.97S VSB 1/4
O`NEILL        PTCLDY    60  59  97 S6        29.96F
ORD            FOG       54  53  97 S5        29.95F VSB 1/4
THEDFORD       CLOUDY    59  58  99 SE5       29.98S VSB 1
$$

NEZ041-046>049-061>064-073>077-083>087-181200-
SOUTH CENTRAL NEBRASKA

CITY           SKY/WX    TMP DP  RH WIND       PRES   REMARKS
GRAND ISLAND   FOG       61  59  93 SE8       29.98S VSB 1/4
AURORA         FOG       60  60 100 E3        29.97F VSB 1/4
HASTINGS       FOG       61  59  93 SE8       29.97R VSB 1/2
HEBRON         CLOUDY    63  61  94 E6        29.95S FOG
HOLDREGE       CLOUDY    61  59  95 SE5       29.96S FOG
KEARNEY *      CLOUDY    61  59  94 E9        29.97F VSB 1
YORK           LGT RAIN  63  63 100 SE9       29.98F VSB 1/4
$$

NEZ011>018-030>034-042>045-181200-
NORTHEAST NEBRASKA

CITY           SKY/WX    TMP DP  RH WIND       PRES   REMARKS
NORFOLK        MOCLDY    61  59  93 S7        29.97R
ALBION         PTCLDY    57  55  94 S9        29.96F FOG
BLAIR          CLEAR     60  58  93 S5        30.00R
COLUMBUS *     PTCLDY    57  55  94 SE5       29.98F
FREMONT        CLEAR     60  58  94 SE3       29.99S
TEKAMAH        MOCLDY    55  53  93 CALM      30.00R FOG
WAYNE          PTCLDY    58  56  94 SE6       29.98S
$$

NEZ050>053-065>068-078-088>093-181200-
SOUTHEAST NEBRASKA

CITY           SKY/WX    TMP DP  RH WIND       PRES   REMARKS
LINCOLN        CLOUDY    63  62  97 SE9       29.99S FOG
OMAHA EPPLEY   PTCLDY    60  57  89 SE6       30.00R
BEATRICE       CLOUDY    63  62  99 SE8       29.97S FOG
FALLS CITY     PTCLDY    62  61  96 E5        29.98S FOG
NEBRASKA CITY  FOG       62  60  94 SE6       29.99S VSB 1/4
PLATTSMOUTH    CLOUDY    60  58  94 SE8       29.99S FOG
$$

NEZ044-045-051>053-067-181200-
OMAHA AREA

CITY           SKY/WX    TMP DP  RH WIND       PRES   REMARKS
OMAHA EPPLEY   PTCLDY    60  57  89 SE6       30.00R
BLAIR          CLEAR     60  58  93 S5        30.00R
FREMONT        CLEAR     60  58  94 SE3       29.99S
MILLARD        CLEAR     60  58  94 CALM      29.99S FOG
OFFUTT AFB     PTCLDY    58  58 100 E7        29.99S
PLATTSMOUTH    CLOUDY    60  58  94 SE8       29.99S FOG
WAHOO          FOG       55  53  92 CALM      29.99S VSB 1/4
$$


USA.gov is the U.S. government's official web portal to all federal, state and local government web resources and services.